YAOGAN-29 (41038 NORAD) Tracking and Keplerian Element Data

This shows tracking and keplerian element data for the satellite.

Feedback or suggestion? Click here.




ElementValue
Catalog41038
NameYAOGAN-29
Epoch Orbit43936
Epoch Day13.17005956
Epoch Year2024
RAAN26.6452
Inclination98.0608
Eccentricity0.0002856
Argument of Perigee52.3445
Mean Anonmoly307.8025
Mean Motion14.81441645
Decay Rate8.8E-06
L11 41038U 15069A 24013.17005956 .00000880 00000+0 11930-3 0 9992
L22 41038 98.0608 26.6452 0002856 52.3445 307.8025 14.81441645439366



Live tracking and technical data element details for YAOGAN-29 (NORAD 41038). YAOGAN-29 can be tracked NOW for your location showing map with azimuth and elevation plus other details from your city location.







IsCatalogInMostPopularTable: catalog: 41038, numindb: 509
Update: records affected: 1



GetName: 41038 YAOGAN-29

Hit Count: updated at: Fri, 19 Apr 2024 11:39:32 GMT